Albany, GA

9:07 PM EDT on October 20, 2017 (GMT -0400)
Southwest Georgia Regional

Weather History for KABY - August, 2013

Change the Weather History Date:

Tuesday, August 13, 2013

  Actual Average Record
Temperature  
Mean Temperature 84 °F 82 °F  
Max Temperature 96 °F 92 °F 100 °F (1951)
Min Temperature 72 °F 72 °F 58 °F (1979)
Degree Days  
Heating Degree Days 0 0  
Month to date heating degree days 0 0  
Since 1 June heating degree days 0 0  
Since 1 July heating degree days 0 0  
Cooling Degree Days 19 17  
Month to date cooling degree days 243 221  
Year to date cooling degree days 1556 1667  
Since 1 June cooling degree days 1201 1227  
Growing Degree Days 33 (Base 50)    
Moisture  
Dew Point 73 °F    
Average Humidity 71    
Maximum Humidity 93    
Minimum Humidity 49    
Precipitation  
Precipitation T in 0.17 in 1.96 in (2008)
Month to date precipitation 0.17 2.06  
Year to date precipitation 33.10 32.82  
Sea Level Pressure  
Sea Level Pressure 30.00 in    
Wind  
Wind Speed 6 mph (WSW)    
Max Wind Speed 17 mph    
Max Gust Speed 21 mph    
Visibility 10 miles    
Events Thunderstorm    
T = Trace of Precipitation, MM = Missing Value Source: NWS Daily Summary

Daily Weather History Graph

Daily Weather History Graph

Search for Another Location

Airport or City:

Trip Planner

Search our weather history database for the weather conditions in past years. The results will help you decide how hot, cold, wet, or windy it might be!

Date:

Astronomy

Aug. 13, 2013 Rise Set
Actual Time 7:00 AM EDT 8:21 PM EDT
Civil Twilight 6:35 AM EDT 8:47 PM EDT
Nautical Twilight 6:04 AM EDT 9:18 PM EDT
Astronomical Twilight 5:32 AM EDT 9:49 PM EDT
Moon 1:25 PM EDT (8/13) No Moon Set
Length of Visible Light 14h 12m
Length of Day
13h 20m
Waxing Crescent, 41% of the Moon is Illuminated
Aug 13
Waxing Crescent
Aug 14
First Quarter
Aug 20
Full
Aug 28
Last Quarter
Sep 5
New

Hourly Weather History & Observations

Time (EDT) Temp. Heat Index Dew Point Humidity Pressure Visibility Wind Dir Wind Speed Gust Speed Precip Events Conditions
12:53 AM 75.0 °F - 70.0 °F 84% 30.06 in 10.0 mi SW 3.5 mph - N/A   Clear
1:53 AM 75.0 °F - 70.0 °F 84% 30.05 in 10.0 mi SSW 3.5 mph - N/A   Clear
2:53 AM 73.9 °F - 70.0 °F 87% 30.05 in 10.0 mi SW 3.5 mph - N/A   Clear
3:53 AM 73.9 °F - 71.1 °F 91% 30.03 in 10.0 mi Calm Calm - N/A   Clear
4:53 AM 73.0 °F - 71.1 °F 93% 30.02 in 10.0 mi WSW 3.5 mph - N/A   Clear
5:53 AM 73.0 °F - 71.1 °F 93% 30.02 in 10.0 mi SW 3.5 mph - N/A   Clear
6:53 AM 73.0 °F - 71.1 °F 93% 30.03 in 10.0 mi Calm Calm - N/A   Partly Cloudy
7:53 AM 73.9 °F - 72.0 °F 93% 30.03 in 10.0 mi SSW 4.6 mph - N/A   Clear
8:53 AM 78.1 °F - 73.0 °F 84% 30.04 in 10.0 mi SW 3.5 mph - N/A   Clear
9:50 AM 80.6 °F 86.2 °F 75.2 °F 84% 30.05 in 10.0 mi West 9.2 mph - N/A   Mostly Cloudy
9:53 AM 82.0 °F 88.6 °F 75.0 °F 79% 30.05 in 10.0 mi West 5.8 mph - N/A   Mostly Cloudy
10:32 AM 84.2 °F 92.3 °F 75.2 °F 74% 30.06 in 10.0 mi Variable 6.9 mph - N/A   Mostly Cloudy
10:53 AM 84.0 °F 91.9 °F 75.0 °F 74% 30.04 in 10.0 mi WNW 6.9 mph - N/A   Mostly Cloudy
11:53 AM 88.0 °F 97.5 °F 75.0 °F 65% 30.04 in 10.0 mi West 6.9 mph - N/A   Mostly Cloudy
12:53 PM 89.1 °F 98.0 °F 73.9 °F 61% 30.02 in 10.0 mi WNW 9.2 mph - N/A   Mostly Cloudy
1:53 PM 91.9 °F 99.5 °F 72.0 °F 52% 30.00 in 10.0 mi Variable 4.6 mph - N/A   Clear
2:53 PM 93.0 °F 100.7 °F 72.0 °F 50% 29.98 in 10.0 mi WSW 8.1 mph 16.1 mph N/A   Partly Cloudy
3:53 PM 91.0 °F 99.3 °F 73.0 °F 55% 29.95 in 10.0 mi SW 10.4 mph 20.7 mph 0.00 in   Mostly Cloudy
4:27 PM 89.6 °F 98.2 °F 73.4 °F 59% 29.95 in 10.0 mi South 11.5 mph - N/A   Scattered Clouds
4:53 PM 91.0 °F 100.4 °F 73.9 °F 57% 29.94 in 10.0 mi South 10.4 mph - N/A   Scattered Clouds
5:53 PM 90.0 °F 97.9 °F 73.0 °F 57% 29.91 in 10.0 mi South 13.8 mph - N/A   Scattered Clouds
6:25 PM 87.8 °F 95.6 °F 73.4 °F 62% 29.93 in 10.0 mi SW 9.2 mph - N/A Thunderstorm Mostly Cloudy
6:53 PM 86.0 °F 93.8 °F 73.9 °F 67% 29.94 in 10.0 mi WSW 9.2 mph - N/A Thunderstorm Mostly Cloudy
7:53 PM 84.9 °F 92.1 °F 73.9 °F 69% 29.94 in 10.0 mi West 9.2 mph - N/A Thunderstorm Clear
8:53 PM 82.0 °F 86.7 °F 72.0 °F 71% 29.95 in 10.0 mi WSW 9.2 mph - N/A Thunderstorm Partly Cloudy
9:53 PM 80.1 °F 84.2 °F 73.0 °F 79% 29.97 in 10.0 mi West 8.1 mph - N/A Thunderstorm Partly Cloudy
10:53 PM 78.1 °F - 73.0 °F 84% 29.98 in 10.0 mi SW 5.8 mph - N/A Thunderstorm Partly Cloudy
11:53 PM 77.0 °F - 73.0 °F 88% 29.98 in 10.0 mi SW 4.6 mph - N/A Thunderstorm Clear